TimeEST,TemperatureF,Dew PointF,Humidity,Sea Level PressureIn,VisibilityMPH,Wind Direction,Wind SpeedMPH,Gust SpeedMPH,PrecipitationIn,Events,Conditions,WindDirDegrees,DateUTC
12:15 AM,29.1,21.2,72,30.48,10.0,SSE,4.6,-,N/A,,Clear,150,2013-11-30 05:15:00
12:34 AM,29.3,21.4,72,30.47,10.0,SSE,5.8,-,N/A,,Clear,150,2013-11-30 05:34:00
12:55 AM,29.5,21.2,71,30.47,10.0,SSE,6.9,-,N/A,,Clear,150,2013-11-30 05:55:00
1:15 AM,29.3,21.2,72,30.46,10.0,SSE,8.1,-,N/A,,Clear,160,2013-11-30 06:15:00
1:34 AM,29.3,21.0,71,30.45,10.0,SSE,6.9,-,N/A,,Scattered Clouds,160,2013-11-30 06:34:00
1:55 AM,29.8,20.8,69,30.45,10.0,SSE,8.1,-,N/A,,Mostly Cloudy,160,2013-11-30 06:55:00
2:15 AM,30.0,20.7,68,30.44,10.0,SSE,8.1,-,N/A,,Scattered Clouds,160,2013-11-30 07:15:00
2:34 AM,30.0,20.8,69,30.44,10.0,SSE,8.1,-,N/A,,Scattered Clouds,160,2013-11-30 07:34:00
2:55 AM,29.7,20.8,70,30.43,10.0,SSE,6.9,-,N/A,,Clear,160,2013-11-30 07:55:00
3:15 AM,29.8,20.8,69,30.43,10.0,South,6.9,-,N/A,,Scattered Clouds,170,2013-11-30 08:15:00
3:34 AM,29.8,21.0,70,30.42,10.0,SSE,6.9,-,N/A,,Scattered Clouds,160,2013-11-30 08:34:00
3:55 AM,29.7,21.2,71,30.40,10.0,SSE,6.9,-,N/A,,Scattered Clouds,160,2013-11-30 08:55:00
4:15 AM,29.8,21.6,71,30.40,10.0,South,8.1,-,N/A,,Scattered Clouds,170,2013-11-30 09:15:00
4:34 AM,30.2,21.7,71,30.40,10.0,South,6.9,-,N/A,,Scattered Clouds,170,2013-11-30 09:34:00
4:55 AM,30.2,21.7,71,30.39,10.0,South,4.6,-,N/A,,Scattered Clouds,170,2013-11-30 09:55:00
5:14 AM,30.2,21.9,71,30.38,10.0,SSE,4.6,-,N/A,,Scattered Clouds,160,2013-11-30 10:14:00
5:35 AM,30.2,21.9,71,30.38,10.0,SSE,6.9,-,N/A,,Scattered Clouds,150,2013-11-30 10:35:00
5:55 AM,29.8,22.1,73,30.38,10.0,South,5.8,-,N/A,,Clear,170,2013-11-30 10:55:00
6:14 AM,30.6,22.3,71,30.36,10.0,SSE,5.8,-,N/A,,Clear,160,2013-11-30 11:14:00
6:35 AM,30.6,22.5,72,30.36,10.0,South,6.9,-,N/A,,Scattered Clouds,170,2013-11-30 11:35:00
6:55 AM,30.9,22.6,71,30.36,10.0,South,5.8,-,N/A,,Scattered Clouds,170,2013-11-30 11:55:00
7:14 AM,31.1,22.8,71,30.36,10.0,South,5.8,-,N/A,,Clear,170,2013-11-30 12:14:00
7:35 AM,31.1,22.8,71,30.36,10.0,South,6.9,-,N/A,,Clear,180,2013-11-30 12:35:00
7:55 AM,30.7,22.6,72,30.35,10.0,South,6.9,-,N/A,,Clear,180,2013-11-30 12:55:00
8:14 AM,30.2,22.6,73,30.35,10.0,South,6.9,-,N/A,,Clear,170,2013-11-30 13:14:00
8:35 AM,30.4,23.2,75,30.35,7.0,SSE,5.8,-,N/A,,Clear,160,2013-11-30 13:35:00
8:55 AM,31.1,23.4,73,30.34,7.0,South,5.8,-,N/A,,Clear,170,2013-11-30 13:55:00
9:14 AM,32.5,23.9,70,30.33,7.0,South,6.9,-,N/A,,Clear,170,2013-11-30 14:14:00
9:35 AM,34.2,23.9,66,30.32,10.0,South,8.1,-,N/A,,Clear,190,2013-11-30 14:35:00
9:55 AM,34.7,23.9,65,30.31,10.0,South,5.8,-,N/A,,Clear,180,2013-11-30 14:55:00
10:14 AM,35.1,23.9,64,30.31,10.0,SSW,8.1,-,N/A,,Clear,200,2013-11-30 15:14:00
10:35 AM,36.7,24.4,61,30.30,10.0,South,8.1,-,N/A,,Clear,190,2013-11-30 15:35:00
10:54 AM,37.9,24.8,59,30.28,10.0,South,10.4,16.1,N/A,,Clear,190,2013-11-30 15:54:00
11:15 AM,38.8,24.6,57,30.28,10.0,SSW,9.2,-,N/A,,Clear,200,2013-11-30 16:15:00
11:35 AM,40.5,25.2,54,30.27,10.0,SSW,9.2,16.1,N/A,,Clear,210,2013-11-30 16:35:00
11:54 AM,41.2,25.2,53,30.25,10.0,SSW,8.1,16.1,N/A,,Clear,200,2013-11-30 16:54:00
12:15 PM,42.3,25.5,52,30.24,10.0,SW,12.7,19.6,N/A,,Clear,220,2013-11-30 17:15:00
12:35 PM,43.7,26.1,50,30.22,10.0,SSW,10.4,-,N/A,,Clear,210,2013-11-30 17:35:00
12:54 PM,44.4,26.4,49,30.21,10.0,SSW,10.4,17.3,N/A,,Clear,210,2013-11-30 17:54:00
1:15 PM,44.8,26.6,49,30.19,10.0,SSW,12.7,18.4,N/A,,Clear,210,2013-11-30 18:15:00
1:34 PM,45.7,27.0,48,30.19,10.0,SSW,12.7,19.6,N/A,,Clear,210,2013-11-30 18:34:00
1:55 PM,46.4,27.3,47,30.18,10.0,SSW,11.5,18.4,N/A,,Clear,210,2013-11-30 18:55:00
2:15 PM,46.6,27.5,47,30.17,10.0,SW,12.7,19.6,N/A,,Clear,220,2013-11-30 19:15:00
2:34 PM,46.8,27.9,48,30.15,10.0,SW,12.7,18.4,N/A,,Clear,230,2013-11-30 19:34:00
2:55 PM,46.9,28.0,48,30.14,10.0,SSW,12.7,21.9,N/A,,Clear,210,2013-11-30 19:55:00
3:15 PM,46.9,28.0,48,30.13,10.0,SW,10.4,-,N/A,,Clear,220,2013-11-30 20:15:00
3:34 PM,46.8,28.0,48,30.12,10.0,SW,10.4,18.4,N/A,,Clear,220,2013-11-30 20:34:00
3:55 PM,46.4,27.7,48,30.12,10.0,SSW,10.4,16.1,N/A,,Clear,210,2013-11-30 20:55:00
4:15 PM,45.5,27.7,50,30.12,10.0,SSW,8.1,-,N/A,,Clear,210,2013-11-30 21:15:00
4:34 PM,44.4,27.7,52,30.12,10.0,SW,8.1,-,N/A,,Clear,220,2013-11-30 21:34:00
4:55 PM,42.1,27.5,56,30.12,10.0,SSW,5.8,-,N/A,,Clear,210,2013-11-30 21:55:00
5:14 PM,40.8,27.1,58,30.12,10.0,SSW,5.8,-,N/A,,Clear,200,2013-11-30 22:14:00
5:35 PM,41.9,27.5,57,30.12,10.0,SSW,3.5,-,N/A,,Clear,200,2013-11-30 22:35:00
5:55 PM,41.4,27.5,58,30.12,10.0,SSW,4.6,-,N/A,,Clear,200,2013-11-30 22:55:00
6:14 PM,40.6,27.7,60,30.11,10.0,South,5.8,-,N/A,,Clear,180,2013-11-30 23:14:00
6:35 PM,40.6,28.0,61,30.11,10.0,South,4.6,-,N/A,,Clear,190,2013-11-30 23:35:00
6:54 PM,37.6,27.3,66,30.11,7.0,South,4.6,-,N/A,,Clear,180,2013-11-30 23:54:00
7:15 PM,39.9,28.2,63,30.11,10.0,South,5.8,-,N/A,,Clear,190,2013-12-01 00:15:00
7:35 PM,39.7,28.2,63,30.11,10.0,South,6.9,-,N/A,,Clear,190,2013-12-01 00:35:00
7:54 PM,40.3,28.2,62,30.11,10.0,South,6.9,-,N/A,,Clear,190,2013-12-01 00:54:00
8:15 PM,40.1,28.0,62,30.11,10.0,South,6.9,-,N/A,,Clear,180,2013-12-01 01:15:00
8:35 PM,40.1,28.0,62,30.10,10.0,South,6.9,-,N/A,,Clear,190,2013-12-01 01:35:00
8:54 PM,39.4,27.9,63,30.10,10.0,SSW,5.8,-,N/A,,Clear,200,2013-12-01 01:54:00
9:15 PM,39.2,27.9,64,30.09,10.0,SSW,5.8,-,N/A,,Clear,200,2013-12-01 02:15:00
9:35 PM,38.3,27.9,66,30.10,10.0,SSW,6.9,-,N/A,,Clear,200,2013-12-01 02:35:00
9:54 PM,37.6,27.9,68,30.09,10.0,SSW,6.9,-,N/A,,Clear,210,2013-12-01 02:54:00
10:15 PM,37.4,27.5,67,30.09,10.0,SSW,8.1,-,N/A,,Clear,210,2013-12-01 03:15:00
10:35 PM,36.5,27.7,70,30.09,10.0,SW,6.9,-,N/A,,Clear,220,2013-12-01 03:35:00
10:54 PM,37.2,28.2,70,30.09,10.0,SW,6.9,-,N/A,,Mostly Cloudy,220,2013-12-01 03:54:00
11:15 PM,38.1,28.2,68,30.09,10.0,SW,5.8,-,N/A,,Overcast,220,2013-12-01 04:15:00
11:35 PM,38.5,28.2,67,30.09,10.0,SW,5.8,-,N/A,,Overcast,220,2013-12-01 04:35:00
11:54 PM,38.8,28.2,66,30.08,10.0,SW,5.8,-,N/A,,Overcast,230,2013-12-01 04:54:00